TimeEST,TemperatureF,Dew PointF,Humidity,Sea Level PressureIn,VisibilityMPH,Wind Direction,Wind SpeedMPH,Gust SpeedMPH,PrecipitationIn,Events,Conditions,WindDirDegrees,DateUTC
12:52 AM,10.9,3.0,70,30.53,10.0,Calm,Calm,-,N/A,,Clear,0,2014-03-07 05:52:00
1:52 AM,9.0,1.9,73,30.50,9.0,NE,3.5,-,N/A,,Clear,40,2014-03-07 06:52:00
2:52 AM,8.1,1.0,73,30.45,9.0,Calm,Calm,-,N/A,,Clear,0,2014-03-07 07:52:00
3:52 AM,7.0,1.0,77,30.46,10.0,Calm,Calm,-,N/A,,Clear,0,2014-03-07 08:52:00
4:52 AM,7.0,1.0,77,30.45,10.0,NE,3.5,-,N/A,,Clear,50,2014-03-07 09:52:00
5:52 AM,3.9,-0.9,80,30.43,9.0,NNE,3.5,-,N/A,,Clear,30,2014-03-07 10:52:00
6:52 AM,5.0,-0.9,76,30.45,9.0,Calm,Calm,-,N/A,,Clear,0,2014-03-07 11:52:00
7:52 AM,7.0,1.0,77,30.41,10.0,Calm,Calm,-,N/A,,Clear,0,2014-03-07 12:52:00
8:52 AM,12.9,3.9,67,30.38,10.0,Calm,Calm,-,N/A,,Clear,0,2014-03-07 13:52:00
9:52 AM,21.0,8.1,57,30.37,10.0,Calm,Calm,-,N/A,,Clear,0,2014-03-07 14:52:00
10:52 AM,28.0,12.9,53,30.34,10.0,Calm,Calm,-,N/A,,Mostly Cloudy,0,2014-03-07 15:52:00
11:14 AM,30.0,14.0,51,30.32,10.0,Calm,Calm,-,N/A,,Partly Cloudy,0,2014-03-07 16:14:00
11:52 AM,33.1,17.1,52,30.30,10.0,North,3.5,-,N/A,,Clear,360,2014-03-07 16:52:00
12:52 PM,34.0,17.1,50,30.24,10.0,NE,5.8,-,N/A,,Clear,50,2014-03-07 17:52:00
1:52 PM,36.0,16.0,44,30.20,10.0,ENE,3.5,-,N/A,,Mostly Cloudy,60,2014-03-07 18:52:00
2:52 PM,37.0,16.0,42,30.16,10.0,NE,5.8,-,N/A,,Mostly Cloudy,50,2014-03-07 19:52:00
3:52 PM,37.9,17.1,43,30.12,10.0,North,3.5,-,N/A,,Mostly Cloudy,360,2014-03-07 20:52:00
4:21 PM,37.9,18.0,45,30.10,10.0,ENE,4.6,-,N/A,,Overcast,70,2014-03-07 21:21:00
4:41 PM,37.9,19.0,47,30.10,10.0,NE,3.5,-,N/A,,Overcast,40,2014-03-07 21:41:00
4:52 PM,37.9,18.0,45,30.11,10.0,Calm,Calm,-,N/A,,Overcast,0,2014-03-07 21:52:00
5:27 PM,37.0,19.0,48,30.09,10.0,NNE,5.8,-,N/A,,Overcast,30,2014-03-07 22:27:00
5:52 PM,37.0,21.0,52,30.10,10.0,NNE,5.8,-,N/A,,Overcast,30,2014-03-07 22:52:00
6:52 PM,36.0,21.9,57,30.08,10.0,NE,4.6,-,N/A,,Overcast,40,2014-03-07 23:52:00
7:52 PM,36.0,21.0,55,30.05,10.0,NE,5.8,-,N/A,,Overcast,40,2014-03-08 00:52:00
8:52 PM,36.0,21.0,55,30.04,10.0,NNE,3.5,-,N/A,,Overcast,20,2014-03-08 01:52:00
9:10 PM,36.0,21.0,55,30.03,10.0,NNE,4.6,-,N/A,,Overcast,20,2014-03-08 02:10:00
9:32 PM,36.0,19.9,52,30.02,10.0,North,6.9,-,N/A,,Overcast,10,2014-03-08 02:32:00
9:52 PM,36.0,19.9,52,30.02,10.0,North,5.8,-,N/A,,Overcast,360,2014-03-08 02:52:00
10:06 PM,35.1,19.9,54,30.00,10.0,NNE,4.6,-,N/A,,Overcast,30,2014-03-08 03:06:00
10:52 PM,33.1,21.0,61,29.97,10.0,North,3.5,-,N/A,,Clear,10,2014-03-08 03:52:00
11:52 PM,30.9,21.0,67,29.94,10.0,North,3.5,-,N/A,,Mostly Cloudy,10,2014-03-08 04:52:00